Weather History for Cairns Airport, Queensland

Change the Weather History Date:

Monday, December 31, 2012

  Actual Average Record
Temperature  
Mean Temperature 80 °F -  
Max Temperature 86 °F 89 °F - ()
Min Temperature 73 °F 74 °F - ()
Cooling Degree Days 14    
Growing Degree Days 30 (Base 50)    
Moisture  
Dew Point 73 °F    
Average Humidity 85    
Maximum Humidity 100    
Minimum Humidity 55    
Precipitation  
Precipitation 0.39 in 0.53 in - ()
Sea Level Pressure  
Sea Level Pressure 29.77 in    
Wind  
Wind Speed 10 mph ()    
Max Wind Speed 18 mph    
Max Gust Speed 29 mph    
Visibility 5.6 miles    
Events Rain    
T = Trace of Precipitation, MM = Missing Value Source: Averaged Metar Reports

Daily Weather History Graph

Daily Weather History Graph

Search for Another Location

Airport:

Trip Planner

Search our weather history database for the weather conditions in past years. The results will help you decide how hot, cold, wet, or windy it might be!

Date:

Astronomy

Dec. 31, 2012 Rise Set
Actual Time 5:46 AM AEST 6:53 PM AEST
Civil Twilight 5:22 AM AEST 7:17 PM AEST
Nautical Twilight 4:54 AM AEST 7:45 PM AEST
Astronomical Twilight 4:25 AM AEST 8:14 PM AEST
Moon 8:50 PM AEST (12/31) 7:53 AM AEST (12/31)
Length of Visible Light 13h 55m
Length of Day
13h 07m
Waning Gibbous, 93% of the Moon is Illuminated
Dec 31
Waning Gibbous
Jan 5
Last Quarter
Jan 12
New
Jan 19
First Quarter
Jan 27
Full

Hourly Weather History & Observations

Time (AEST) Temp. Heat Index Dew Point Humidity Pressure Visibility Wind Dir Wind Speed Gust Speed Precip Events Conditions
12:00 AM 79 °F - 71 °F 71% 29.76 in - SSE 6.9 mph - -  
12:00 AM 78.8 °F - 71.6 °F 78% 29.74 in 6.2 mi SSE 6.9 mph - N/A   Partly Cloudy
12:30 AM 78.8 °F - 71.6 °F 78% 29.74 in 6.2 mi South 8.1 mph - N/A   Partly Cloudy
1:00 AM 80 °F - 73 °F 73% 29.75 in - South 8.1 mph - -  
1:00 AM 78.8 °F - 73.4 °F 83% 29.74 in 6.2 mi South 8.1 mph - N/A   Scattered Clouds
1:30 AM 78.8 °F - 73.4 °F 83% 29.71 in 6.2 mi South 8.1 mph - N/A   Scattered Clouds
2:00 AM 78.8 °F - 73.4 °F 83% 29.71 in 6.2 mi South 9.2 mph - N/A   Scattered Clouds
2:30 AM 78.8 °F - 71.6 °F 78% 29.71 in 2.5 mi SSE 10.4 mph - N/A Rain Light Rain Showers
2:46 AM 77.0 °F - 73.4 °F 89% 29.71 in 6.2 mi SSE 10.4 mph - N/A   Mostly Cloudy
3:00 AM 76 °F - 73 °F 86% 29.73 in - South 9.2 mph - -   Overcast
3:00 AM 77.0 °F - 73.4 °F 89% 29.71 in 5.0 mi South 9.2 mph - N/A Rain Light Rain Showers
3:30 AM 77.0 °F - 73.4 °F 89% 29.71 in 6.2 mi South 10.4 mph - N/A   Scattered Clouds
4:00 AM 77 °F - 72 °F 80% 29.71 in - South 11.5 mph - -  
4:00 AM 77.0 °F - 71.6 °F 83% 29.71 in 6.2 mi South 11.5 mph - N/A   Scattered Clouds
4:30 AM 77.0 °F - 71.6 °F 83% 29.71 in 6.2 mi South 11.5 mph - N/A   Scattered Clouds
5:00 AM 77.0 °F - 73.4 °F 89% 29.71 in 6.2 mi South 10.4 mph - N/A   Scattered Clouds
5:30 AM 77.0 °F - 71.6 °F 83% 29.71 in 6.2 mi South 11.5 mph - N/A   Scattered Clouds
6:00 AM 78 °F - 72 °F 77% 29.74 in 12 mi South 9.2 mph - - Rain Light Rain Showers
6:00 AM 77.0 °F - 71.6 °F 83% 29.74 in 6.2 mi South 9.2 mph - N/A Rain Light Rain Showers
6:30 AM 77.0 °F - 71.6 °F 83% 29.74 in 6.2 mi South 10.4 mph - N/A   Mostly Cloudy
6:51 AM 77.0 °F - 73.4 °F 89% 29.77 in 3.7 mi SSE 10.4 mph - N/A Rain Light Rain Showers
7:00 AM 76 °F - 73 °F 88% 29.78 in - South 10.4 mph - -  
7:00 AM 77.0 °F - 73.4 °F 89% 29.77 in 6.2 mi South 10.4 mph - N/A Rain Light Rain Showers
7:35 AM 77.0 °F - 73.4 °F 89% 29.77 in 3.7 mi South 10.4 mph - N/A Rain Light Rain Showers
7:43 AM 77.0 °F - 73.4 °F 89% 29.77 in 2.5 mi South 13.8 mph - N/A Rain Light Rain Showers
8:00 AM 75.2 °F - 73.4 °F 94% 29.80 in 2.5 mi SSE 18.4 mph - N/A Rain Rain Showers
8:05 AM 75.2 °F - 73.4 °F 94% 29.80 in 2.5 mi SSE 17.3 mph 28.8 mph N/A Rain Rain Showers
8:30 AM 75.2 °F - 73.4 °F 94% 29.80 in 3.1 mi South 10.4 mph - N/A Rain Light Rain Showers
8:46 AM 77.0 °F - 73.4 °F 89% 29.77 in 6.2 mi South 9.2 mph - N/A   Scattered Clouds
9:00 AM 77 °F - 74 °F 87% 29.80 in 16 mi South 10.4 mph - - Rain Light Rain Showers
9:00 AM 77.0 °F - 73.4 °F 89% 29.80 in 6.2 mi South 10.4 mph - N/A   Mostly Cloudy
9:30 AM 80.6 °F 85.4 °F 73.4 °F 79% 29.77 in 6.2 mi South 11.5 mph - N/A   Mostly Cloudy
10:00 AM 81 °F - 74 °F 74% 29.80 in - SSE 13.8 mph - -  
10:00 AM 80.6 °F 85.4 °F 73.4 °F 79% 29.80 in 6.2 mi SSE 13.8 mph - N/A   Mostly Cloudy
10:30 AM 82.4 °F 88.2 °F 73.4 °F 74% 29.77 in 3.7 mi South 11.5 mph - N/A Rain Light Rain Showers
11:00 AM 78.8 °F - 75.2 °F 89% 29.80 in 4.3 mi South 10.4 mph - N/A Rain Light Rain Showers
11:08 AM 78.8 °F - 75.2 °F 89% 29.80 in 6.2 mi South 12.7 mph - N/A   Mostly Cloudy
11:30 AM 80.6 °F 86.2 °F 75.2 °F 84% 29.77 in 6.2 mi South 13.8 mph - N/A   Mostly Cloudy
12:00 PM 81 °F - 73 °F 70% 29.78 in 19 mi South 12.7 mph - - Rain Light Rain Showers
12:00 PM 80.6 °F 85.4 °F 73.4 °F 79% 29.77 in 6.2 mi South 12.7 mph - N/A   Mostly Cloudy
12:30 PM 82.4 °F 87.2 °F 71.6 °F 70% 29.77 in 6.2 mi South 13.8 mph - N/A   Mostly Cloudy
1:00 PM 85 °F - 71 °F 55% 29.76 in - South 11.5 mph - -  
1:00 PM 84.2 °F 89.6 °F 71.6 °F 66% 29.74 in 6.2 mi South 11.5 mph - N/A   Partly Cloudy
1:30 PM 86.0 °F 91.8 °F 71.6 °F 62% 29.74 in 6.2 mi South 11.5 mph - N/A   Scattered Clouds
2:00 PM 84.2 °F 89.6 °F 71.6 °F 66% 29.74 in 6.2 mi South 9.2 mph - N/A Rain Light Rain Showers
2:30 PM 80.6 °F 85.4 °F 73.4 °F 79% 29.74 in 3.7 mi East 16.1 mph - N/A Rain Light Rain Showers
2:56 PM 77.0 °F - 75.2 °F 94% 29.74 in 2.5 mi SE 17.3 mph - N/A Rain Light Rain Showers
3:00 PM 76 °F - 75 °F 94% 29.76 in 2 mi SE 17.3 mph - - Rain Light Rain Showers
3:00 PM 77.0 °F - 75.2 °F 94% 29.74 in 2.5 mi SE 17.3 mph - N/A Rain Light Rain Showers
3:30 PM 77.0 °F - 75.2 °F 94% 29.74 in 2.5 mi South 9.2 mph - N/A Rain Light Rain Showers
4:00 PM 76 °F - 75 °F 95% 29.77 in - SSE 13.8 mph - -  
4:00 PM 77.0 °F - 75.2 °F 94% 29.74 in 3.1 mi SSE 13.8 mph - N/A Rain Light Rain Showers
4:22 PM 77.0 °F - 75.2 °F 94% 29.74 in 5.6 mi South 11.5 mph - N/A Rain Light Rain Showers
4:30 PM 77.0 °F - 75.2 °F 94% 29.77 in 6.2 mi South 8.1 mph - N/A Rain Light Rain Showers
5:00 PM 77.0 °F - 73.4 °F 89% 29.77 in 6.2 mi South 9.2 mph - N/A Rain Light Rain Showers
5:30 PM 75.2 °F - 73.4 °F 94% 29.77 in 6.2 mi South 9.2 mph - N/A Rain Light Rain Showers
6:00 PM 75 °F - 72 °F 89% 29.78 in - South 12.7 mph - -   Overcast
6:00 PM 75.2 °F - 73.4 °F 94% 29.77 in 5.0 mi South 12.7 mph - N/A Rain Light Rain Showers
6:23 PM 75.2 °F - 71.6 °F 89% 29.77 in 3.1 mi SSE 9.2 mph - N/A Rain Rain Showers
6:30 PM 73.4 °F - 73.4 °F 100% 29.77 in 5.0 mi South 11.5 mph - N/A Rain Light Rain Showers
6:48 PM 75.2 °F - 71.6 °F 89% 29.80 in 3.7 mi South 11.5 mph - N/A Rain Light Rain Showers
7:00 PM 74 °F - 72 °F 92% 29.81 in - South 12.7 mph - -  
7:00 PM 75.2 °F - 71.6 °F 89% 29.80 in 3.7 mi South 12.7 mph - N/A Rain Light Rain Showers
7:30 PM 73.4 °F - 71.6 °F 94% 29.80 in 6.2 mi South 16.1 mph - N/A Rain Light Rain Showers
8:00 PM 73.4 °F - 71.6 °F 94% 29.80 in 5.6 mi South 11.5 mph - N/A Rain Light Rain Showers
8:30 PM 73.4 °F - 71.6 °F 94% 29.80 in 6.2 mi South 10.4 mph - N/A   Mostly Cloudy
9:00 PM 75 °F - 72 °F 89% 29.81 in - South 12.7 mph - -   Overcast
9:00 PM 75.2 °F - 71.6 °F 89% 29.80 in 6.2 mi South 12.7 mph - N/A   Mostly Cloudy
9:30 PM 75.2 °F - 71.6 °F 89% 29.80 in 6.2 mi South 11.5 mph - N/A   Mostly Cloudy
10:00 PM 75.2 °F - 71.6 °F 89% 29.80 in 6.2 mi SSE 10.4 mph - N/A   Mostly Cloudy
10:30 PM 75.2 °F - 71.6 °F 89% 29.80 in 6.2 mi South 12.7 mph - N/A   Scattered Clouds
11:00 PM 75.2 °F - 71.6 °F 89% 29.83 in 6.2 mi South 13.8 mph - N/A   Scattered Clouds
11:30 PM 75.2 °F - 71.6 °F 89% 29.83 in 3.7 mi South 12.7 mph - N/A Rain Light Rain Showers
11:46 PM 75.2 °F - 71.6 °F 89% 29.83 in 6.2 mi South 13.8 mph - N/A   Scattered Clouds